Tracking 23764 objects as of 18-Oct-2021
HD Live streaming from Space Station
objects crossing your sky now

UPPER FREE FLYER

Track UPPER FREE FLYER now!
10-day predictions


NORAD ID: 43763
Int'l Code: 2018-099F
Perigee: 577.4 km
Apogee: 595.3 km
Inclination: 97.7 °
Period: 96.3 minutes
Semi major axis: 6957 km
RCS: Unknown
Launch date: December 3, 2018
Source: United States (US)
Launch site: AIR FORCE WESTERN TEST RANGE (AFWTR)
aabbcc
Your satellite tracking list
Your tracking list is empty




NASA's NSSDC Master Catalog

Two Line Element Set (TLE):
1 43763U 18099F   21290.74401791  .00000866  00000-0  82122-4 0  9996
2 43763  97.6518 359.1260 0012910   6.7422 353.3937 14.96025039156803
Source of the keplerian elements: AFSPC